TimeEDT,TemperatureF,Dew PointF,Humidity,Sea Level PressureIn,VisibilityMPH,Wind Direction,Wind SpeedMPH,Gust SpeedMPH,PrecipitationIn,Events,Conditions,WindDirDegrees,DateUTC
12:15 AM,53.6,37.4,54,30.19,10.0,North,4.6,-,N/A,,Clear,360,2013-07-02 04:15:00
12:35 AM,53.6,37.4,54,30.19,10.0,North,4.6,-,N/A,,Clear,360,2013-07-02 04:35:00
12:55 AM,51.8,37.4,58,30.19,10.0,North,4.6,-,N/A,,Clear,350,2013-07-02 04:55:00
1:15 AM,51.8,37.4,58,30.19,10.0,North,5.8,-,N/A,,Clear,360,2013-07-02 05:15:00
1:35 AM,51.8,39.2,62,30.19,10.0,North,4.6,-,N/A,,Clear,10,2013-07-02 05:35:00
1:55 AM,50.0,39.2,66,30.19,10.0,NNW,3.5,-,N/A,,Clear,330,2013-07-02 05:55:00
2:15 AM,48.2,39.2,71,30.19,10.0,NNW,3.5,-,N/A,,Clear,330,2013-07-02 06:15:00
2:35 AM,48.2,39.2,71,30.19,10.0,NNW,3.5,-,N/A,,Clear,340,2013-07-02 06:35:00
2:55 AM,46.4,39.2,76,30.18,10.0,NNW,3.5,-,N/A,,Clear,340,2013-07-02 06:55:00
3:15 AM,46.4,39.2,76,30.18,10.0,NNW,3.5,-,N/A,,Clear,330,2013-07-02 07:15:00
3:35 AM,48.2,39.2,71,30.18,10.0,North,4.6,-,N/A,,Clear,350,2013-07-02 07:35:00
3:55 AM,46.4,39.2,76,30.18,10.0,Calm,Calm,-,N/A,,Clear,0,2013-07-02 07:55:00
4:15 AM,44.6,39.2,81,30.17,10.0,NW,3.5,-,N/A,,Clear,320,2013-07-02 08:15:00
4:35 AM,44.6,39.2,81,30.18,10.0,Calm,Calm,-,N/A,,Clear,0,2013-07-02 08:35:00
4:55 AM,44.6,39.2,81,30.18,10.0,Calm,Calm,-,N/A,,Clear,0,2013-07-02 08:55:00
5:15 AM,44.6,39.2,81,30.18,10.0,Calm,Calm,-,N/A,,Clear,0,2013-07-02 09:15:00
5:35 AM,42.8,37.4,81,30.18,10.0,Calm,Calm,-,N/A,,Clear,0,2013-07-02 09:35:00
5:55 AM,44.6,39.2,81,30.18,10.0,Calm,Calm,-,N/A,,Clear,0,2013-07-02 09:55:00
6:15 AM,42.8,39.2,87,30.18,10.0,Calm,Calm,-,N/A,,Clear,0,2013-07-02 10:15:00
6:35 AM,44.6,39.2,81,30.19,10.0,NNW,3.5,-,N/A,,Clear,340,2013-07-02 10:35:00
6:55 AM,44.6,41.0,87,30.19,10.0,Calm,Calm,-,N/A,,Clear,0,2013-07-02 10:55:00
7:15 AM,48.2,41.0,76,30.19,10.0,North,3.5,-,N/A,,Clear,10,2013-07-02 11:15:00
7:35 AM,50.0,41.0,71,30.19,10.0,North,3.5,-,N/A,,Clear,350,2013-07-02 11:35:00
7:55 AM,51.8,42.8,71,30.19,10.0,North,3.5,-,N/A,,Clear,360,2013-07-02 11:55:00
8:15 AM,53.6,42.8,67,30.19,10.0,North,4.6,-,N/A,,Clear,10,2013-07-02 12:15:00
8:35 AM,55.4,42.8,63,30.20,10.0,North,3.5,-,N/A,,Clear,360,2013-07-02 12:35:00
8:55 AM,59.0,44.6,59,30.20,10.0,NE,4.6,-,N/A,,Clear,50,2013-07-02 12:55:00
9:15 AM,60.8,44.6,55,30.19,9.0,NE,4.6,-,N/A,,Clear,40,2013-07-02 13:15:00
9:35 AM,60.8,42.8,52,30.19,10.0,ENE,3.5,-,N/A,,Clear,70,2013-07-02 13:35:00
10:15 AM,64.4,44.6,49,30.19,10.0,East,4.6,-,N/A,,Clear,100,2013-07-02 14:15:00
10:35 AM,66.2,44.6,46,30.18,10.0,SE,3.5,-,N/A,,Clear,130,2013-07-02 14:35:00
10:55 AM,66.2,42.8,43,30.18,10.0,ESE,4.6,-,N/A,,Clear,110,2013-07-02 14:55:00
11:15 AM,68.0,39.2,35,30.18,10.0,East,4.6,-,N/A,,Clear,100,2013-07-02 15:15:00
11:35 AM,69.8,42.8,38,30.18,10.0,SE,6.9,-,N/A,,Clear,140,2013-07-02 15:35:00
11:55 AM,69.8,42.8,38,30.18,10.0,ESE,8.1,-,N/A,,Clear,120,2013-07-02 15:55:00
12:15 PM,69.8,44.6,40,30.17,10.0,SE,4.6,-,N/A,,Clear,140,2013-07-02 16:15:00
12:35 PM,69.8,44.6,40,30.17,10.0,SE,9.2,-,N/A,,Clear,140,2013-07-02 16:35:00
12:55 PM,69.8,44.6,40,30.16,5.0,SSE,9.2,-,N/A,,Clear,150,2013-07-02 16:55:00
1:15 PM,71.6,44.6,38,30.16,10.0,SSE,10.4,-,N/A,,Clear,160,2013-07-02 17:15:00
3:35 PM,69.8,44.6,40,30.13,10.0,South,11.5,-,N/A,,Clear,170,2013-07-02 19:35:00
3:55 PM,71.6,44.6,38,30.13,10.0,SSE,12.7,-,N/A,,Clear,160,2013-07-02 19:55:00
4:15 PM,71.6,42.8,35,30.12,10.0,SSE,11.5,-,N/A,,Clear,150,2013-07-02 20:15:00
4:35 PM,71.6,39.2,31,30.12,10.0,South,8.1,-,N/A,,Clear,170,2013-07-02 20:35:00
4:55 PM,71.6,41.0,33,30.12,10.0,SSE,10.4,-,N/A,,Clear,160,2013-07-02 20:55:00
5:15 PM,71.6,39.2,31,30.11,10.0,SSE,8.1,-,N/A,,Clear,160,2013-07-02 21:15:00
5:35 PM,71.6,42.8,35,30.11,10.0,South,9.2,-,N/A,,Clear,170,2013-07-02 21:35:00
5:55 PM,69.8,41.0,35,30.11,10.0,SSE,8.1,-,N/A,,Clear,160,2013-07-02 21:55:00
6:15 PM,71.6,39.2,31,30.11,10.0,SSE,9.2,-,N/A,,Clear,160,2013-07-02 22:15:00
6:35 PM,71.6,39.2,31,30.11,10.0,SSE,9.2,-,N/A,,Clear,160,2013-07-02 22:35:00
6:55 PM,69.8,39.2,33,30.11,10.0,South,6.9,-,N/A,,Clear,170,2013-07-02 22:55:00
7:15 PM,69.8,39.2,33,30.11,10.0,SSE,8.1,-,N/A,,Clear,160,2013-07-02 23:15:00
7:35 PM,69.8,37.4,31,30.11,10.0,SSE,6.9,-,N/A,,Clear,160,2013-07-02 23:35:00
7:55 PM,69.8,39.2,33,30.10,10.0,South,5.8,-,N/A,,Clear,170,2013-07-02 23:55:00
8:15 PM,68.0,41.0,37,30.10,10.0,South,3.5,-,N/A,,Clear,170,2013-07-03 00:15:00
8:35 PM,69.8,44.6,40,30.11,10.0,South,3.5,-,N/A,,Partly Cloudy,170,2013-07-03 00:35:00
8:55 PM,69.8,46.4,43,30.11,10.0,Calm,Calm,-,N/A,,Mostly Cloudy,0,2013-07-03 00:55:00
9:15 PM,69.8,46.4,43,30.11,10.0,Calm,Calm,-,N/A,,Overcast,0,2013-07-03 01:15:00
9:35 PM,66.2,48.2,52,30.10,10.0,Calm,Calm,-,N/A,,Overcast,0,2013-07-03 01:35:00
9:55 PM,64.4,48.2,56,30.11,10.0,Calm,Calm,-,N/A,,Overcast,0,2013-07-03 01:55:00
10:15 PM,62.6,50.0,63,30.11,10.0,Calm,Calm,-,N/A,,Mostly Cloudy,0,2013-07-03 02:15:00
10:35 PM,62.6,48.2,59,30.11,10.0,Calm,Calm,-,N/A,,Mostly Cloudy,0,2013-07-03 02:35:00
10:55 PM,60.8,51.8,72,30.11,10.0,Calm,Calm,-,N/A,,Scattered Clouds,0,2013-07-03 02:55:00
11:15 PM,59.0,53.6,82,30.11,10.0,Calm,Calm,-,N/A,,Clear,0,2013-07-03 03:15:00
11:35 PM,57.2,51.8,82,30.11,10.0,Calm,Calm,-,N/A,,Clear,0,2013-07-03 03:35:00
11:55 PM,57.2,51.8,82,30.11,10.0,Calm,Calm,-,N/A,,Clear,0,2013-07-03 03:55:00